Regional Weather Roundup
Issued by NWS

Home | Current Version | Previous Version | Text Only | Print | Product List | Glossary Off
Versions: 1 2 3 4 5 6 7 8 9 10 11 12 13 14 15 16 17 18 19 20 21 22 23 24 25 26 27 28 29 30 31 32 33 34 35 36 37 38 39 40 41 42 43 44 45 46 47 48 49 50

000
ASUS43 KLOT 221512
RWRIL

ILLINOIS REGIONAL WEATHER ROUNDUP
NATIONAL WEATHER SERVICE CHICAGO/ROMEOVILLE IL
1000 AM CDT FRI MAY 22 2015

NOTE: "FAIR" INDICATES FEW OR NO CLOUDS BELOW 12,000 FEET WITH NO
SIGNIFICANT WEATHER AND/OR OBSTRUCTIONS TO VISIBILITY.

* THESE STATIONS ARE NOT UNDER NWS QUALITY CONTROL. THEY ALSO MAY NOT
  REPORT WEATHER SUCH AS PRECIPITATION OR FOG.

ILZ001-002-007-009-015-016-024-221600-
NORTHWEST ILLINOIS

CITY           SKY/WX    TMP DP  RH WIND       PRES   REMARKS
MOLINE         SUNNY     67  44  43 VRB3      30.19R
STERLING*      SUNNY     64  46  52 E7        30.20R
SAVANNA*       SUNNY     64  43  46 E3        30.21R
$$

ILZ003-004-008-010-011-017-018-221600-
NORTH CENTRAL ILLINOIS

CITY           SKY/WX    TMP DP  RH WIND       PRES   REMARKS
ROCKFORD       MOSUNNY   62  37  39 E7        30.23R
FREEPORT*      SUNNY     61  40  45 E8        30.22S
ROCHELLE*      SUNNY     64  41  43 E6        30.21S
DE KALB*       SUNNY     61  41  47 E6        30.21S
PERU*          SUNNY     65  46  50 NE5       30.20R
$$

ILZ005-006-012>014-019>023-221600-
NORTHEAST ILLINOIS

CITY           SKY/WX    TMP DP  RH WIND       PRES   REMARKS
CHICAGO-OHARE  SUNNY     59  36  42 NE12      30.20R
CHICAGO-MIDWAY SUNNY     62  43  49 E10       30.20R
AURORA         SUNNY     65  42  43 E7        30.20R
LANSING*       SUNNY     60  46  59 N3        30.20R
JOLIET*        SUNNY     66  47  50 NE7       30.19S
WAUKEGAN       SUNNY     55  33  43 NE7       30.22R
DUPAGE AIRPORT SUNNY     61  36  39 NE7       30.20R
KANKAKEE*      SUNNY     65  49  55 NE8       30.19S
WHEELING       SUNNY     58  32  37 NE9       30.23R
MORRIS*        SUNNY     66  46  46 NE6       30.18R
ROMEOVILLE*    SUNNY     63  42  47 NE3       30.19S
NORTHERLY ISL    N/A     52  41  66 MISG        N/A
$$

LMZ740>746-221600-
SOUTHERN LAKE MICHIGAN

STATION/POSITION SKY/WX   TEMP    WIND        PRES    VSBY  WAVE
                          AIR SEA DIR/SP/G                  HT/PER
                          (F)     (DEG/KT/KT) (MB)    (MI)  (FT/S)
SOUTHERN BUOY              41 38  330/  6/  8   N/A           1
HARRISON CRIB              46     350/ 12/ 14   N/A
BURNHAM HARBOR             53     360/  9/ 14   N/A
CALUMET HARBOR             51     350/  7/ 10   N/A
BURNS HARBOR               51     330/  6/  7 1022.7R
MICHIGAN CITY              58      30/  7/  8   N/A
MICHIGAN CITY 6N           49 51   30/ 12/ 14   N/A           1/ 3
ST. JOSEPH                 53 53   20/  8/ 10   N/A           1
$$

ILZ025>027-034>036-040-047-049-050-058-095>099-221600-
WEST-CENTRAL ILLINOIS

CITY           SKY/WX    TMP DP  RH WIND       PRES   REMARKS
QUINCY         SUNNY     65  46  50 CALM      30.22R
GALESBURG*     SUNNY     68  46  46 NW3       30.20R
MACOMB*        SUNNY     67  44  43 CALM      30.22S
JACKSONVILLE*  SUNNY     68  47  48 NW6       30.22R
PITTSFIELD*    SUNNY     66  47  50 W3        30.23S
$$

ILZ028>032-037-038-041>044-048-051>054-059>061-221600-
CENTRAL ILLINOIS

CITY           SKY/WX    TMP DP  RH WIND       PRES   REMARKS
PONTIAC        SUNNY     68  48  48 NE3       30.20R
BLOOMINGTON    SUNNY     67  47  48 W3        30.21R
DECATUR        SUNNY     67  49  52 W5        30.21R
PEORIA         SUNNY     70  48  45 CALM      30.20R
LACON*         SUNNY     65  47  51 CALM      30.19R
LINCOLN*       SUNNY     69  48  48 CALM      30.19S
SPRINGFIELD    SUNNY     68  47  46 VRB3      30.21S
TAYLORVILLE    SUNNY     63  48  59 W3        30.22S
$$

ILZ033-039-045-046-055>057-062-063-221600-
EAST-CENTRAL ILLINOIS

CITY           SKY/WX    TMP DP  RH WIND       PRES   REMARKS
CHAMPAIGN      SUNNY     67  48  50 NW6       30.20R
DANVILLE*      SUNNY     62  48  60 CALM      30.17R
RANTOUL*       SUNNY     69  47  45 N3        30.19R
MATTOON        SUNNY     65  47  52 MISG      30.21R
PARIS*         SUNNY     67  47  49 W7        30.21R
$$

ILZ079-100>102-221600-
SOUTHWEST ILLINOIS

CITY           SKY/WX    TMP DP  RH WIND       PRES   REMARKS
ALTON          SUNNY     64  54  68 SW7       30.25R
BELLEVILLE     SUNNY     67  49  53 W8        30.24R
CAHOKIA*       SUNNY     66  48  52 VRB7      30.25S
SPARTA*        SUNNY     62  50  64 SW5       30.28S
$$

ILZ064>066-069>071-074>076-080>082-084>086-088>090-092>094-221600-
SOUTH-CENTRAL ILLINOIS

CITY           SKY/WX    TMP DP  RH WIND       PRES   REMARKS
CARBONDALE     SUNNY     64  48  56 SW6       30.29R
CAIRO*         SUNNY     62  49  63 CALM      30.31S
EFFINGHAM*     SUNNY     64  45  49 W8        30.24S
MARION         SUNNY     64  50  59 SW12      30.30R
MT. VERNON     SUNNY     64  50  59 SW10      30.28R
CENTRALIA*     SUNNY     66  49  54 SW13      30.26R
SALEM*         SUNNY     65  47  53 W10       30.25R
METROPOLIS*    SUNNY     64  49  59 SW3       30.30S
$$

ILZ067-068-072-073-078-083-087-091-221600-
SOUTHEAST ILLINOIS

CITY           SKY/WX    TMP DP  RH WIND       PRES   REMARKS
LAWRENCEVILLE  SUNNY     64  48  56 W7        30.25R
FLORA*         SUNNY     64  48  57 W7        30.25R
FAIRFIELD*     SUNNY     64  50  60 SW9       30.25S
HARRISBURG*    SUNNY     64  49  57 SW9       30.30R
ROBINSON*      SUNNY     63  47  57 W9        30.24S
CARMI*         SUNNY     66  42  41 SW10      30.27S
$$

ABBREVIATIONS USED IN REMARKS
   TC - TEMPERATURE IN CELSIUS
  WCI - WIND CHILL INDEX
   HX - HEAT INDEX
  VSB - VISIBILITY
$$



USA.gov is the U.S. government's official web portal to all federal, state and local government web resources and services.